Voltar ao catálogo

STARLINK-30191

AtivoComunicaçõesVLEO
NORAD 57413·PAYLOAD·🇺🇸 United States

Lançado Jul 20, 2023 de Vandenberg Space Force Base

Loading…

Próximas Passagens (próximas 24 horas)

TLE

AtualizadoSource: CelesTrak SupGP

Época: Sep 14, 2026, 21:12 UTC

1 57413C 23102K   26257.88381944  .00313440  00000+0  68952-2 0  2578
2 57413  43.0014 195.7679 0001544 278.5848 325.2471 15.42968705    16

Acompanhe STARLINK-30191 em tempo real com AllMySat

Download on the App Store